Regional Weather Roundup
Issued by NWS

Home | Current Version | Previous Version | Graphics & Text | Print | Product List | Glossary On
Versions: 1 2 3 4 5 6 7 8 9 10 11 12 13 14 15 16 17 18 19 20 21 22 23 24 25 26 27 28 29 30 31 32 33 34 35 36 37 38 39 40 41 42 43 44 45 46 47 48 49 50
000
ASUS43 KTOP 160108
RWRKS

WEATHER ROUNDUP FOR KANSAS
NATIONAL WEATHER SERVICE GOODLAND KS
800 PM CDT TUE AUG 15 2017

NOTE:  "FAIR" INDICATES FEW OR NO CLOUDS BELOW 12,000 FEET WITH NO
SIGNIFICANT WEATHER AND/OR OBSTRUCTIONS TO VISIBILITY.

KSZ001>006-013>018-027>032-041>047-160200-
NORTHWEST KANSAS

CITY           SKY/WX    TMP DP  RH WIND       PRES   REMARKS
GOODLAND       CLOUDY    79  62  56 S15       29.77F
HAYS           CLEAR     85  65  51 SE16      29.76S
HILL CITY      CLOUDY    87  62  43 S14G21    29.75R
RUSSELL        PTCLDY    86  66  51 S15G22    29.76S
$$

KSZ061>065-074>080-084>089-160200-
SOUTHWEST KANSAS

CITY           SKY/WX    TMP DP  RH WIND       PRES   REMARKS
DODGE CITY     CLEAR     83  63  50 SE16      29.78S
ELKHART          N/A     78  68  71 S6          N/A
GARDEN CITY    CLEAR     80  63  55 SE8       29.76F
GREAT BEND     CLEAR     82  69  64 SE12      29.78S
LIBERAL        CLEAR     84  66  54 S12       29.77
PRATT          CLEAR     81  69  67 SE10      29.79S
$$

KSZ066>073-081>083-090>101-160200-
SOUTHEAST KANSAS

CITY           SKY/WX    TMP DP  RH WIND       PRES   REMARKS
CHANUTE        CLOUDY    81  74  79 SE6       29.81F
COFFEYVILLE    CLOUDY    79  75  87 S8        29.80F
HUTCHINSON     HVY RAIN  77  73  87 SE13      29.79S FOG
MEDICINE LODGE   N/A     79  71  76 E8        29.77S
NEWTON         CLOUDY    77  71  82 SE9       29.82S
PARSONS        CLOUDY    81  73  76 CALM      29.82F
WICHITA INTL   MOCLDY    81  73  76 SE12      29.79S
WICHITA JABRA  CLOUDY    79  73  82 SE10      29.80F
WICHITA MCCONL MOCLDY    80  72  75 SE8       29.80S
WINFIELD       MOCLDY    81  74  79 SE7       29.81R
$$

KSZ007>012-019>026-033>040-048>060-102>105-160200-
NORTHEAST KANSAS

CITY           SKY/WX    TMP DP  RH WIND       PRES   REMARKS
CONCORDIA      CLOUDY    80  71  74 SE14      29.78R
EMPORIA        CLOUDY    80  72  76 SE7       29.81F
LAWRENCE       MOCLDY    81  74  79 SE6       29.82S
MANHATTAN      CLEAR     82  72  71 S6        29.79S
MARYSVILLE     CLEAR     81  70  69 SE7       29.81R
OLATHE IND     CLEAR     81  71  71 SE7       29.85R
OLATHE EXE     CLEAR     80  71  74 S8        29.85R
SALINA         CLOUDY    86  68  54 SE15      29.78R
TOPEKA BILLARD CLEAR     82  73  74 SE7       29.81S
TOPEKA FORBES  PTCLDY    83  72  69 SE12      29.82S
$$




USA.gov is the U.S. government's official web portal to all federal, state and local government web resources and services.